Change the Weather History Date:

Monday, October 29, 2012

  Actual Average Record
Temperature  
Mean Temperature 42 °F -  
Max Temperature 53 °F 54 °F 69 °F (2008)
Min Temperature 32 °F 39 °F 30 °F (1997)
Degree Days  
Heating Degree Days 22    
Moisture  
Dew Point 27 °F    
Average Humidity 56    
Maximum Humidity 75    
Minimum Humidity 35    
Precipitation  
Precipitation 0.00 in 0.15 in - ()
Sea Level Pressure  
Sea Level Pressure 29.79 in    
Wind  
Wind Speed 6 mph ()    
Max Wind Speed 15 mph    
Max Gust Speed -    
Visibility 6.2 miles    
Events      
Averages and records for this station are not official NWS values.
T = Trace of Precipitation, MM = Missing Value Source: Averaged Metar Reports

Daily Weather History Graph

Daily Weather History Graph

Search for Another Location

Airport or City:

Trip Planner

Search our weather history database for the weather conditions in past years. The results will help you decide how hot, cold, wet, or windy it might be!

Date:

Astronomy

Oct. 29, 2012 Rise Set
Actual Time 6:42 AM CET 4:56 PM CET
Civil Twilight 6:11 AM CET 5:27 PM CET
Nautical Twilight 5:36 AM CET 6:02 PM CET
Astronomical Twilight 5:01 AM CET 6:36 PM CET
Moon 4:36 PM CET (10/29) 6:17 AM CET (10/29)
Length of Visible Light 11h 16m
Length of Day
10h 14m
Full, 100% of the Moon is Illuminated
Oct 29
Full
Oct 29
Full
Nov 7
Last Quarter
Nov 13
New
Nov 20
First Quarter

Hourly Weather History & Observations

Time (CET) Temp. Windchill Dew Point Humidity Pressure Visibility Wind Dir Wind Speed Gust Speed Precip Events Conditions
12:20 AM 42.8 °F 35.4 °F 28.4 °F 57% 29.71 in 6.2 mi East 15.0 mph - N/A   Mostly Cloudy
12:50 AM 42.8 °F 36.6 °F 26.6 °F 53% 29.71 in 6.2 mi East 11.5 mph - N/A   Mostly Cloudy
1:20 AM 42.8 °F 36.6 °F 26.6 °F 53% 29.74 in 6.2 mi East 11.5 mph - N/A   Scattered Clouds
1:50 AM 42.8 °F 38.0 °F 28.4 °F 57% 29.74 in 6.2 mi East 8.1 mph - N/A   Mostly Cloudy
2:20 AM 42.8 °F 39.3 °F 28.4 °F 57% 29.71 in 6.2 mi NE 5.8 mph - N/A   Scattered Clouds
2:50 AM 42.8 °F 40.1 °F 26.6 °F 53% 29.71 in 6.2 mi ENE 4.6 mph - N/A   Mostly Cloudy
3:20 AM 41.0 °F 37.1 °F 26.6 °F 57% 29.71 in - ENE 5.8 mph - N/A   Clear
3:50 AM 39.2 °F - 26.6 °F 61% 29.71 in - Variable 1.2 mph - N/A   Clear
4:20 AM 39.2 °F 33.6 °F 28.4 °F 65% 29.71 in - East 8.1 mph - N/A   Clear
4:50 AM 39.2 °F 35.0 °F 26.6 °F 61% 29.71 in - NNE 5.8 mph - N/A   Clear
5:20 AM 41.0 °F - 28.4 °F 61% 29.71 in - Variable 2.3 mph - N/A   Clear
5:50 AM 41.0 °F 39.0 °F 26.6 °F 57% 29.71 in - Variable 3.5 mph - N/A   Clear
6:20 AM 37.4 °F - 24.8 °F 60% 29.71 in - Calm Calm - N/A   Clear
6:50 AM 35.6 °F - 24.8 °F 65% 29.74 in - Calm Calm - N/A   Clear
7:20 AM 37.4 °F - 28.4 °F 70% 29.74 in - Variable 1.2 mph - N/A   Clear
7:50 AM 39.2 °F - 28.4 °F 65% 29.74 in - Variable 1.2 mph - N/A   Clear
8:20 AM 41.0 °F - 32.0 °F 70% 29.74 in - Variable 1.2 mph - N/A   Clear
8:50 AM 46.4 °F 44.3 °F 30.2 °F 53% 29.77 in - NNE 4.6 mph - N/A   Clear
9:20 AM 48.2 °F - 28.4 °F 46% 29.77 in - Variable 3.5 mph - N/A   Clear
9:50 AM 48.2 °F - 28.4 °F 46% 29.77 in - ESE 4.6 mph - N/A   Clear
10:20 AM 50.0 °F - 26.6 °F 40% 29.77 in - ENE 4.6 mph - N/A   Clear
10:50 AM 50.0 °F - 26.6 °F 40% 29.77 in - Variable 3.5 mph - N/A   Clear
11:20 AM 51.8 °F - 26.6 °F 38% 29.77 in - Variable 3.5 mph - N/A   Clear
11:50 AM 50.0 °F - 23.0 °F 35% 29.77 in - NE 6.9 mph - N/A   Clear
12:20 PM 51.8 °F - 24.8 °F 35% 29.77 in - ENE 6.9 mph - N/A   Clear
12:50 PM 51.8 °F - 24.8 °F 35% 29.77 in - NE 6.9 mph - N/A   Clear
1:20 PM 53.6 °F - 26.6 °F 35% 29.77 in 6.2 mi ENE 6.9 mph - N/A   Partly Cloudy
1:50 PM 51.8 °F - 24.8 °F 35% 29.77 in 6.2 mi East 10.4 mph - N/A   Partly Cloudy
2:20 PM 51.8 °F - 26.6 °F 38% 29.77 in 6.2 mi East 11.5 mph - N/A   Partly Cloudy
2:50 PM 51.8 °F - 28.4 °F 41% 29.77 in 6.2 mi East 8.1 mph - N/A   Partly Cloudy
3:20 PM 50.0 °F - 26.6 °F 40% 29.80 in 6.2 mi East 8.1 mph - N/A   Partly Cloudy
3:50 PM 50.0 °F - 28.4 °F 43% 29.80 in 6.2 mi ESE 5.8 mph - N/A   Partly Cloudy
4:20 PM 44.6 °F 42.2 °F 24.8 °F 46% 29.80 in 6.2 mi ESE 4.6 mph - N/A   Partly Cloudy
4:50 PM 42.8 °F 39.3 °F 26.6 °F 53% 29.80 in 6.2 mi ESE 5.8 mph - N/A   Partly Cloudy
5:20 PM 41.0 °F 36.4 °F 28.4 °F 61% 29.83 in 6.2 mi ESE 6.9 mph - N/A   Partly Cloudy
5:50 PM 39.2 °F 34.2 °F 28.4 °F 65% 29.83 in 6.2 mi ESE 6.9 mph - N/A   Partly Cloudy
6:20 PM 39.2 °F 34.2 °F 28.4 °F 65% 29.83 in 6.2 mi ESE 6.9 mph - N/A   Partly Cloudy
6:50 PM 41.0 °F 37.1 °F 28.4 °F 61% 29.86 in 6.2 mi East 5.8 mph - N/A   Partly Cloudy
7:20 PM 39.2 °F - 26.6 °F 61% 29.86 in - Variable 2.3 mph - N/A   Clear
7:50 PM 39.2 °F - 26.6 °F 61% 29.89 in - Calm Calm - N/A   Clear
8:20 PM 35.6 °F - 26.6 °F 70% 29.89 in - Calm Calm - N/A   Clear
8:50 PM 35.6 °F - 26.6 °F 70% 29.89 in - Calm Calm - N/A   Clear
9:20 PM 33.8 °F - 24.8 °F 70% 29.89 in - Calm Calm - N/A   Clear
9:50 PM 35.6 °F - 26.6 °F 70% 29.92 in - Variable 2.3 mph - N/A   Clear
10:20 PM 33.8 °F - 24.8 °F 70% 29.92 in - Calm Calm - N/A   Clear
10:50 PM 33.8 °F - 24.8 °F 70% 29.92 in - Calm Calm - N/A   Clear
11:20 PM 32.0 °F - 24.8 °F 75% 29.92 in - Variable 1.2 mph - N/A   Clear
11:50 PM 32.0 °F - 24.8 °F 75% 29.92 in - Calm Calm - N/A   Clear